Weather History for KEIK - November, 2013

Change the Weather History Date:

Thursday, November 14, 2013

  Actual Average (KBJC) Record (KBJC)
Temperature  
Mean Temperature 46 °F -  
Max Temperature 57 °F 50 °F 79 °F (1990)
Min Temperature 34 °F 30 °F 5 °F (2014)
Degree Days  
Heating Degree Days 19    
Moisture  
Dew Point 29 °F    
Average Humidity 52    
Maximum Humidity 88    
Minimum Humidity 26    
Precipitation  
Precipitation 0.00 in - - ()
Sea Level Pressure  
Sea Level Pressure 29.96 in    
Wind  
Wind Speed 5 mph (SSE)    
Max Wind Speed 10 mph    
Max Gust Speed 16 mph    
Visibility 10 miles    
Events      
Averages and records for this station are not official NWS values.
T = Trace of Precipitation, MM = Missing Value Source: NWS Daily Summary

Daily Weather History Graph

Daily Weather History Graph

Search for Another Location

Airport or City:

Trip Planner

Search our weather history database for the weather conditions in past years. The results will help you decide how hot, cold, wet, or windy it might be!

Date:

Astronomy

Nov. 14, 2013 Rise Set
Actual Time 6:44 AM MST 4:44 PM MST
Civil Twilight 6:15 AM MST 5:13 PM MST
Nautical Twilight 5:42 AM MST 5:46 PM MST
Astronomical Twilight 5:10 AM MST 6:18 PM MST
Moon 3:07 PM MST (11/14) 3:42 AM MST (11/14)
Length of Visible Light 10h 57m
Length of Day
9h 59m
Waxing Gibbous, 92% of the Moon is Illuminated
Nov 14
Waxing Gibbous
Nov 17
Full
Nov 25
Last Quarter
Dec 2
New
Dec 9
First Quarter

Hourly Weather History & Observations

Time (MST) Temp. Windchill Dew Point Humidity Pressure Visibility Wind Dir Wind Speed Gust Speed Precip Events Conditions
12:14 AM 54.3 °F - 19.8 °F 26% 30.01 in 10.0 mi West 9.2 mph - N/A   Clear
12:34 AM 52.7 °F - 20.8 °F 29% 30.01 in 10.0 mi WNW 8.1 mph - N/A   Scattered Clouds
12:54 AM 51.6 °F - 21.9 °F 31% 30.01 in 10.0 mi WNW 8.1 mph - N/A   Mostly Cloudy
1:14 AM 51.8 °F - 21.9 °F 31% 30.01 in 10.0 mi WNW 8.1 mph - N/A   Overcast
1:34 AM 52.7 °F - 22.1 °F 30% 30.02 in 10.0 mi West 6.9 mph - N/A   Scattered Clouds
1:54 AM 50.9 °F - 22.5 °F 33% 30.03 in 10.0 mi WNW 8.1 mph - N/A   Scattered Clouds
2:14 AM 51.4 °F - 22.8 °F 33% 30.03 in 10.0 mi West 5.8 mph - N/A   Scattered Clouds
2:34 AM 49.6 °F - 23.5 °F 36% 30.03 in 10.0 mi Calm Calm - N/A   Clear
2:54 AM 48.6 °F - 24.4 °F 39% 30.03 in 10.0 mi Calm Calm - N/A   Clear
3:14 AM 49.8 °F - 23.7 °F 36% 30.03 in 10.0 mi WSW 4.6 mph - N/A   Clear
3:34 AM 51.1 °F - 23.9 °F 35% 30.04 in 10.0 mi WNW 8.1 mph - N/A   Clear
3:54 AM 50.2 °F - 23.4 °F 35% 30.05 in 10.0 mi East 4.6 mph - N/A   Clear
4:14 AM 48.2 °F - 25.2 °F 41% 30.05 in 10.0 mi East 4.6 mph - N/A   Clear
4:34 AM 47.1 °F - 25.9 °F 44% 30.06 in 10.0 mi SSW 3.5 mph - N/A   Clear
4:54 AM 44.6 °F 43.1 °F 27.5 °F 51% 30.07 in 10.0 mi ESE 3.5 mph - N/A   Mostly Cloudy
5:14 AM 45.5 °F 43.2 °F 28.9 °F 52% 30.07 in 10.0 mi ENE 4.6 mph - N/A   Scattered Clouds
5:34 AM 42.6 °F 39.9 °F 29.5 °F 60% 30.07 in 10.0 mi East 4.6 mph - N/A   Clear
5:54 AM 39.9 °F 35.1 °F 29.8 °F 67% 30.07 in 10.0 mi East 6.9 mph - N/A   Clear
6:14 AM 43.3 °F 39.9 °F 29.8 °F 59% 30.08 in 10.0 mi East 5.8 mph - N/A   Clear
6:34 AM 41.9 °F 38.2 °F 29.7 °F 62% 30.08 in 10.0 mi ENE 5.8 mph - N/A   Clear
6:54 AM 42.3 °F 39.4 °F 30.9 °F 64% 30.09 in 10.0 mi East 4.6 mph - N/A   Clear
7:14 AM 41.0 °F - 31.1 °F 68% 30.09 in 10.0 mi Calm Calm - N/A   Clear
7:34 AM 40.6 °F 38.6 °F 32.0 °F 71% 30.10 in 10.0 mi SW 3.5 mph - N/A   Clear
7:54 AM 42.3 °F - 32.0 °F 67% 30.11 in 10.0 mi Calm Calm - N/A   Clear
8:14 AM 44.4 °F 42.9 °F 32.5 °F 63% 30.11 in 10.0 mi SSW 3.5 mph - N/A   Clear
8:34 AM 46.6 °F - 33.1 °F 59% 30.12 in 10.0 mi SSE 4.6 mph - N/A   Clear
8:54 AM 47.8 °F - 33.3 °F 57% 30.11 in 10.0 mi ESE 8.1 mph - N/A   Clear
9:14 AM 48.4 °F - 33.1 °F 56% 30.11 in 10.0 mi SE 4.6 mph - N/A   Clear
9:34 AM 48.9 °F - 33.1 °F 54% 30.10 in 10.0 mi SSE 8.1 mph - N/A   Clear
9:54 AM 49.6 °F - 33.3 °F 53% 30.10 in 10.0 mi SE 8.1 mph - N/A   Clear
10:14 AM 50.0 °F - 33.3 °F 53% 30.09 in 10.0 mi SSE 4.6 mph - N/A   Clear
10:34 AM 50.5 °F - 33.3 °F 52% 30.07 in 10.0 mi SSE 5.8 mph - N/A   Clear
10:54 AM 51.8 °F - 32.5 °F 48% 30.06 in 10.0 mi SE 5.8 mph - N/A   Clear
11:14 AM 52.2 °F - 32.9 °F 48% 30.04 in 10.0 mi SE 6.9 mph - N/A   Clear
11:34 AM 53.6 °F - 32.4 °F 44% 30.02 in 10.0 mi SE 5.8 mph - N/A   Clear
11:54 AM 53.4 °F - 32.2 °F 44% 30.00 in 10.0 mi SE 5.8 mph - N/A   Clear
12:14 PM 54.1 °F - 32.5 °F 44% 29.98 in 10.0 mi SE 6.9 mph - N/A   Clear
12:34 PM 54.5 °F - 31.6 °F 42% 29.97 in 10.0 mi SSE 8.1 mph - N/A   Clear
12:54 PM 55.9 °F - 32.0 °F 40% 29.96 in 10.0 mi South 10.4 mph 16.1 mph N/A   Clear
1:14 PM 56.3 °F - 31.8 °F 39% 29.94 in 10.0 mi SSE 6.9 mph - N/A   Clear
1:34 PM 56.7 °F - 31.6 °F 39% 29.93 in 10.0 mi SSE 8.1 mph - N/A   Clear
1:54 PM 57.6 °F - 30.9 °F 36% 29.92 in 10.0 mi ESE 6.9 mph - N/A   Clear
2:14 PM 57.6 °F - 30.9 °F 36% 29.92 in 10.0 mi ESE 9.2 mph - N/A   Clear
2:34 PM 57.2 °F - 30.0 °F 36% 29.90 in 10.0 mi SSE 4.6 mph - N/A   Clear
2:54 PM 57.4 °F - 29.5 °F 35% 29.90 in 10.0 mi SE 10.4 mph - N/A   Clear
3:14 PM 56.7 °F - 28.4 °F 34% 29.89 in 10.0 mi SE 5.8 mph - N/A   Clear
3:34 PM 57.2 °F - 28.9 °F 34% 29.89 in 10.0 mi SE 6.9 mph - N/A   Clear
3:54 PM 56.5 °F - 28.4 °F 34% 29.88 in 10.0 mi SSE 5.8 mph - N/A   Clear
4:14 PM 55.0 °F - 28.8 °F 37% 29.87 in 10.0 mi SE 5.8 mph - N/A   Clear
4:34 PM 51.1 °F - 28.6 °F 42% 29.86 in 10.0 mi SE 4.6 mph - N/A   Clear
4:54 PM 48.6 °F - 28.4 °F 46% 29.86 in 10.0 mi Calm Calm - N/A   Clear
5:14 PM 50.0 °F - 27.5 °F 42% 29.86 in 10.0 mi Calm Calm - N/A   Clear
5:34 PM 46.9 °F - 28.4 °F 49% 29.86 in 10.0 mi Calm Calm - N/A   Clear
5:54 PM 43.2 °F - 28.8 °F 57% 29.86 in 10.0 mi Calm Calm - N/A   Clear
6:14 PM 42.4 °F 40.7 °F 28.0 °F 57% 29.85 in 10.0 mi SSW 3.5 mph - N/A   Clear
6:34 PM 39.7 °F - 28.8 °F 65% 29.85 in 10.0 mi Calm Calm - N/A   Clear
6:54 PM 39.6 °F - 28.9 °F 66% 29.84 in 10.0 mi Calm Calm - N/A   Clear
7:14 PM 39.2 °F - 30.0 °F 70% 29.84 in 10.0 mi Calm Calm - N/A   Clear
7:34 PM 39.2 °F - 30.2 °F 70% 29.83 in 10.0 mi Calm Calm - N/A   Clear
7:54 PM 41.0 °F - 30.0 °F 65% 29.82 in 10.0 mi Calm Calm - N/A   Clear
8:14 PM 38.3 °F - 30.9 °F 75% 29.81 in 10.0 mi Calm Calm - N/A   Clear
8:34 PM 39.7 °F 36.5 °F 30.2 °F 69% 29.81 in 10.0 mi NNW 4.6 mph - N/A   Clear
8:54 PM 38.8 °F - 30.7 °F 73% 29.81 in 10.0 mi Calm Calm - N/A   Clear
9:14 PM 38.3 °F - 30.9 °F 75% 29.82 in 10.0 mi Calm Calm - N/A   Clear
9:34 PM 38.5 °F - 30.9 °F 74% 29.81 in 10.0 mi Calm Calm - N/A   Clear
9:54 PM 37.8 °F - 31.1 °F 77% 29.80 in 10.0 mi Calm Calm - N/A   Clear
10:14 PM 36.3 °F - 30.4 °F 79% 29.80 in 10.0 mi Calm Calm - N/A   Clear
10:34 PM 36.7 °F - 30.9 °F 80% 29.79 in 10.0 mi Calm Calm - N/A   Clear
10:54 PM 35.1 °F - 31.5 °F 87% 29.79 in 10.0 mi Calm Calm - N/A   Clear
11:14 PM 35.1 °F 32.2 °F 31.5 °F 87% 29.78 in 10.0 mi SW 3.5 mph - N/A   Clear
11:54 PM 34.3 °F - 31.1 °F 88% 29.76 in 10.0 mi Calm Calm - N/A   Clear